Weather History for Swansboro, NC

Change the Weather History Date:

Wednesday, May 8, 2013

  Actual Average (KNKT) Record (KNKT)
Temperature  
Mean Temperature 62 °F -  
Max Temperature 71 °F 76 °F 90 °F (2014)
Min Temperature 53 °F 55 °F 48 °F (1997)
Degree Days  
Heating Degree Days 3    
Growing Degree Days 12 (Base 50)    
Moisture  
Dew Point 56 °F    
Average Humidity 75    
Maximum Humidity 100    
Minimum Humidity 51    
Precipitation  
Precipitation 0.00 in - - ()
Sea Level Pressure  
Sea Level Pressure 30.02 in    
Wind  
Wind Speed 6 mph (SW)    
Max Wind Speed 18 mph    
Max Gust Speed 26 mph    
Visibility 10 miles    
Events      
Averages and records for this station are not official NWS values.
T = Trace of Precipitation, MM = Missing Value Source: NWS Daily Summary

Daily Weather History Graph

Daily Weather History Graph

Search for Another Location

Airport:

Trip Planner

Search our weather history database for the weather conditions in past years. The results will help you decide how hot, cold, wet, or windy it might be!

Date:

Astronomy

May. 08, 2013 Rise Set
Actual Time 6:10 AM EDT 7:58 PM EDT
Civil Twilight 5:43 AM EDT 8:26 PM EDT
Nautical Twilight 5:10 AM EDT 8:59 PM EDT
Astronomical Twilight 4:35 AM EDT 9:34 PM EDT
Moon 5:14 AM EDT (5/8) 6:57 PM EDT (5/8)
Length of Visible Light 14h 43m
Length of Day
13h 48m
Waning Crescent, 2% of the Moon is Illuminated
May 8
Waning Crescent
May 9
New
May 18
First Quarter
May 25
Full
May 31
Last Quarter

Hourly Weather History & Observations

Time (EDT) Temp. Dew Point Humidity Pressure Visibility Wind Dir Wind Speed Gust Speed Precip Events Conditions
12:57 AM 62.1 °F 55.9 °F 80% 30.00 in 10.0 mi SW 5.8 mph - N/A   Clear
1:57 AM 60.1 °F 55.0 °F 83% 29.98 in 10.0 mi Calm Calm - N/A   Clear
2:57 AM 59.0 °F 54.0 °F 83% 29.97 in 10.0 mi Calm Calm - N/A   Clear
3:57 AM 55.9 °F 53.1 °F 90% 29.97 in 9.0 mi Calm Calm - N/A   Clear
4:57 AM 53.1 °F 52.0 °F 96% 29.98 in 8.0 mi Calm Calm - N/A   Clear
5:57 AM 53.1 °F 51.1 °F 93% 29.99 in 8.0 mi Calm Calm - N/A   Clear
6:57 AM 54.0 °F 54.0 °F 100% 30.01 in 8.0 mi Calm Calm - N/A   Clear
7:57 AM 63.0 °F 57.0 °F 81% 30.03 in 10.0 mi WSW 5.8 mph - N/A   Partly Cloudy
8:57 AM 66.0 °F 55.9 °F 70% 30.04 in 10.0 mi SW 6.9 mph - N/A   Partly Cloudy
9:57 AM 66.9 °F 55.9 °F 68% 30.05 in 10.0 mi WSW 5.8 mph - N/A   Partly Cloudy
10:57 AM 68.0 °F 57.9 °F 70% 30.06 in 10.0 mi SSW 4.6 mph - N/A   Scattered Clouds
11:57 AM 68.0 °F 59.0 °F 73% 30.06 in 10.0 mi South 8.1 mph - N/A   Scattered Clouds
12:57 PM 69.1 °F 59.0 °F 70% 30.05 in 10.0 mi South 10.4 mph - N/A   Scattered Clouds
1:57 PM 70.0 °F 55.9 °F 61% 30.04 in 10.0 mi SSW 12.7 mph - N/A   Scattered Clouds
2:57 PM 71.1 °F 52.0 °F 51% 30.03 in 10.0 mi SSW 15.0 mph 20.7 mph N/A   Partly Cloudy
3:57 PM 70.0 °F 51.1 °F 51% 30.01 in 10.0 mi SSW 18.4 mph 26.5 mph N/A   Partly Cloudy
4:57 PM 69.1 °F 55.9 °F 63% 30.01 in 10.0 mi SSW 11.5 mph 24.2 mph N/A   Clear
5:57 PM 68.0 °F 55.9 °F 65% 30.01 in 10.0 mi SSW 11.5 mph - N/A   Clear
6:57 PM 66.0 °F 57.0 °F 73% 30.01 in 10.0 mi SSW 15.0 mph - N/A   Clear
7:57 PM 64.9 °F 57.9 °F 78% 30.01 in 10.0 mi SSW 10.4 mph - N/A   Clear
8:57 PM 64.9 °F 59.0 °F 81% 30.02 in 10.0 mi SW 9.2 mph - N/A   Clear
9:57 PM 64.9 °F 59.0 °F 81% 30.04 in 10.0 mi SW 9.2 mph - N/A   Clear
10:57 PM 66.9 °F 59.0 °F 76% 30.04 in 10.0 mi SW 11.5 mph - N/A   Overcast
11:57 PM 66.9 °F 57.9 °F 73% 30.04 in 10.0 mi WSW 11.5 mph 20.7 mph N/A   Overcast